Regional Weather Roundup
Issued by NWS

Home | Current Version | Previous Version | Graphics & Text | Print | Product List | Glossary On
Versions: 1 2 3 4 5 6 7 8 9 10 11 12 13 14 15 16 17 18 19 20 21 22 23 24 25 26 27 28 29 30 31 32 33 34 35 36 37 38 39 40 41 42 43 44 45 46 47 48 49 50
000
ASUS43 KDTX 240401
RWRMI
MICHIGAN HOURLY REGIONAL WEATHER ROUNDUP
NATIONAL WEATHER SERVICE DETROIT/PONTIAC MI
1200 AM EDT SUN MAY 24 2015

NOTE: "FAIR" INDICATES FEW OR NO CLOUDS BELOW 12,000 FEET WITH NO
SIGNIFICANT WEATHER AND/OR OBSTRUCTION TO VISIBILITY.

MIZ047>049-052>055-059>063-066>070-074>076-081>083-240500-
SOUTHEAST LOWER MICHIGAN

CITY           SKY/WX    TMP DP  RH WIND       PRES   REMARKS
ADRIAN         CLEAR     58  46  64 E3        30.28S
ALMA           CLEAR     51  46  82 CALM      30.25S
ANN ARBOR      CLEAR     51  44  77 CALM      30.28F
BAD AXE        CLEAR     51  37  58 SW3       30.25S
CARO           CLEAR     47  41  79 CALM      30.24S
DETROIT CITY   CLEAR     58  38  47 S5        30.29S
DETROIT        CLEAR     58  44  60 SE3       30.29S
FLINT          CLEAR     60  41  49 S8        30.26S
GROSSE ILE     CLEAR     57  46  67 CALM      30.27S
HILLSDALE      PTCLDY    60  44  54 SE5       30.27S
HOWELL         CLEAR     57  41  55 SE3       30.27S

CITY           SKY/WX    TMP DP  RH WIND       PRES   REMARKS
JACKSON        CLEAR     58  46  64 SE8       30.27S
LAMBERTVILLE   CLEAR     54  46  76 CALM      30.28S
LANSING        CLEAR     56  43  61 CALM      30.26S
LAPEER         FAIR      47  41  80 CALM      30.27S
MASON          CLEAR     54  44  67 S6        30.26S
MONROE         CLEAR     57  48  72 CALM      30.27S
MT. CLEMENS    CLEAR     56  44  65 S3        30.26S
PONTIAC        CLEAR     59  39  47 S3        30.27S
PORT HOPE        N/A     62  36  37 SW5       30.22S
PORT HURON     CLEAR     48  41  76 CALM      30.28S
TRI CITIES     CLEAR     63  38  39 S6        30.24S
MIDLAND        FAIR      53  42  64 CALM      30.23R
TROY           CLEAR     62  39  43 CALM      30.30S
SAGINAW HB     CLEAR     55  36  47 S3        30.24S
$$
MIZ043>046-050>051-056>058-064>065-071>073-077>080-240500-
SOUTHWEST LOWER MICHIGAN

CITY           SKY/WX    TMP DP  RH WIND       PRES   REMARKS
BATTLE CREEK   CLEAR     61  48  62 CALM      30.26S
BENTON HARBOR  PTCLDY    56  47  71 E3        30.23R
BIG RAPIDS     CLEAR     51  41  68 W3        30.24R
COLDWATER      CLEAR     54  50  85 SE3       30.25S
FREMONT        FAIR      55  50  83 E3        30.23S
HOLLAND        MOCLDY    59  47  64 CALM      30.24S
GRAND RAPIDS   PTCLDY    58  45  62 CALM      30.24S
IONIA          MOCLDY    58  43  57 CALM      30.24S
KALAMAZOO      MOCLDY    60  46  59 CALM      30.25S
LUDINGTON      PTCLDY    52  43  72 CALM      30.22S
MARSHALL       CLEAR     56  48  74 CALM      30.25S
MOUNT PLEASANT CLEAR     52  44  74 CALM      30.23S
MUSKEGON       CLEAR     58  44  60 E3        30.23S
SOUTH HAVEN    CLOUDY    58  48  68 CALM      30.23R
$$
MIZ016>042-240500-
NORTHERN LOWER MICHIGAN

CITY           SKY/WX    TMP DP  RH WIND       PRES   REMARKS
ALPENA         CLEAR     54  39  57 SW5       30.19F
BEAVER ISLAND  PTCLDY    58  34  39 SW13G20   30.18R
BELLAIRE       CLEAR     47  43  87 CALM      30.20S
CADILLAC       CLEAR     48  38  68 CALM      30.23S
CHARLEVOIX     CLEAR     63  37  39 SW8       30.21S
FRANKFORT      CLEAR     54  36  51 CALM      30.20R
GAYLORD        CLEAR     55  36  48 SW3       30.21S
HARBOR SPRINGS CLEAR     56  39  52 CALM      30.19S
HOUGHTON LAKE  CLEAR     46  42  86 CALM      30.23F
MANISTEE       CLEAR     48  37  66 E3        30.22R
OSCODA         CLEAR     52  42  69 SW7       30.21S
PELLSTON       CLEAR     58  37  45 CALM      30.18S
ROGERS CITY    CLEAR     60  37  42 SW6       30.18S
TRAVERSE CITY  CLEAR     59  39  47 S3        30.19S
$$
MIZ007>008-015-240500-
EASTERN UPPER MICHIGAN

CITY           SKY/WX    TMP DP  RH WIND       PRES   REMARKS
KINROSS        CLEAR     54  34  47 W7        30.17F
MACKINAC ISLAN CLEAR     52  37  57 W8        30.17S
NEWBERRY       CLEAR     54  36  51 SW14      30.16S
S. S. MARIE    PTCLDY    54  34  46 SW3       30.16F
$$
MIZ004>006-011>014-085-240500-
CENTRAL UPPER MICHIGAN

CITY           SKY/WX    TMP DP  RH WIND       PRES   REMARKS
MANISTIQUE     PTCLDY    47  39  74 CALM      30.16R
ESCANABA       PTCLDY    63  39  42 SW9       30.14F
MENOMINEE      MOCLDY    64  39  39 SW7       30.17S
SAWYER-GWINN   CLEAR     58  38  48 S5        30.15F
$$
MIZ001>003-009>011-084-240500-
WESTERN UPPER MICHIGAN

CITY           SKY/WX    TMP DP  RH WIND       PRES   REMARKS
IRON MOUNTAIN  MOCLDY    61  41  47 CALM      30.16S
HOUGHTON       CLEAR     63  37  38 W17       30.12R
COPPER HARBOR    N/A     56  35  45 W3        30.10F
IRONWOOD       PTCLDY    52  45  76 CALM      30.14F
$$

ABBREVIATIONS USED IN REMARKS
   TC - TEMPERATURE IN CELSIUS
  WCI - WIND CHILL INDEX
   HX - HEAT INDEX
  VSB - VISIBILITY




USA.gov is the U.S. government's official web portal to all federal, state and local government web resources and services.